THORAD AGENA D DEB, 19422

Orbit data source: Space-Track

THORAD AGENA D DEB, 19422 is space debris in SSO originally from a launch on Wed, 08 Apr 1970 UTC launched from the Air Force Western Test Range (AFWTR). Debris objects in space refer to the collection of defunct objects orbiting the Earth. Examples of debris include non-operational satellites, rocket bodies, and fragments generated from explosions, collisions, or faulty payload assembly.

Loading next visibility...
Identifier
19422, 1970-025QA
Orbit
SSO
Country
Flag of USUS
Related business
Manufacturer
Unknown
Mission
Spacecraft
Bus & Motor
Unknown
Mass
Unknown
Launch date (UTC)
1970-04-08 (56 years ago)
Launch vehicle
Unknown
Launch site
Air Force Western Test Range (AFWTR)
Object type
Payload
Rocket body
Debris
Shape & HBR
Unknown shape, 0.1 m
Radar Cross Section
Small (<0.1 m²)

Expand to show TLE details & history
Last TLE update: 13 hours ago

TLE from 13 hours ago
0 THORAD AGENA D DEB
1 19422U 70025QA  26072.66212602  .00000384  00000-0  51923-3 0  9992
2 19422 100.0891 135.5896 0012136 169.4874 342.4516 13.66683628 33570
Epoch: 2026-03-13T15:53Z
TLE epoch observation values (Epoch: 2026-03-13T15:53:27.688Z)
Latitude
27.67244°
Longitude
-88.74417°
Altitude
1,006.236 km
Speed
7.355 km/s
True Right ascension
21h 23m 39s
True Declination
27° 32' 10"
Sunlit
Object was in daylight at epoch
Visualization orbit readout
Latitude
Unknown
Longitude
Unknown
Altitude
Unknown
Speed
Unknown
Apparent Right ascension
Unknown
Apparent Declination
Unknown
Sunlit
N/A
Visualization observer readout
Local Sidereal Time
09:08:38
Azimuth
Unknown
Elevation
Unknown
Doppler factor
Unknown
Orbital elements
Apogee altitude
1,017.766 km
Perigee altitude
999.836 km
Semi-major axis
7,386.938 km
Eccentricity
0.00121
Inclination
100.0891°
RAAN
135.5896°
Arg. of periapsis
169.4874°
True anomaly
342.40961°
Mean anomaly
342.4516°
Eccentric anomaly
342.43061°
Mean motion
3.41859 °/min
Orbital period
105.31 mins
BSTAR
0.00051923

Documentation

Showing up to 5 results
|